El Centro, CA

8:31 PM PDT on May 26, 2017 (GMT -0700)
El Centro Naval Air Facility

Weather History for KNJK - July, 2013

Change the Weather History Date:

Wednesday, July 10, 2013

  Actual Average Record
Temperature  
Mean Temperature 90 °F -  
Max Temperature 99 °F 104 °F 115 °F (2012)
Min Temperature 82 °F 77 °F 69 °F (2015)
Cooling Degree Days 25    
Growing Degree Days 40 (Base 50)    
Moisture  
Dew Point 72 °F    
Average Humidity 57    
Maximum Humidity 74    
Minimum Humidity 39    
Precipitation  
Precipitation 0.00 in - - ()
Sea Level Pressure  
Sea Level Pressure 29.87 in    
Wind  
Wind Speed 8 mph (ESE)    
Max Wind Speed 24 mph    
Max Gust Speed 33 mph    
Visibility 10 miles    
Events      
Averages and records for this station are not official NWS values.
T = Trace of Precipitation, MM = Missing Value Source: NWS Daily Summary

Daily Weather History Graph

Daily Weather History Graph

Search for Another Location

Airport or City:

Trip Planner

Search our weather history database for the weather conditions in past years. The results will help you decide how hot, cold, wet, or windy it might be!

Date:

Astronomy

Jul. 10, 2013 Rise Set
Actual Time 5:42 AM PDT 7:53 PM PDT
Civil Twilight 5:14 AM PDT 8:21 PM PDT
Nautical Twilight 4:40 AM PDT 8:55 PM PDT
Astronomical Twilight 4:02 AM PDT 9:32 PM PDT
Moon 7:57 AM PDT (7/10) 9:17 PM PDT (7/10)
Length of Visible Light 15h 07m
Length of Day
14h 10m
Waxing Crescent, 6% of the Moon is Illuminated
Jul 10
Waxing Crescent
Jul 15
First Quarter
Jul 22
Full
Jul 29
Last Quarter
Aug 6
New

Hourly Weather History & Observations

Time (PDT) Temp. Heat Index Dew Point Humidity Pressure Visibility Wind Dir Wind Speed Gust Speed Precip Events Conditions
12:56 AM 86.0 °F 95.1 °F 75.0 °F 70% 29.86 in 10.0 mi SE 9.2 mph - N/A   Unknown
1:56 AM 84.0 °F 91.9 °F 75.0 °F 74% 29.86 in 10.0 mi ESE 5.8 mph - N/A   Unknown
2:56 AM 86.0 °F 95.1 °F 75.0 °F 70% 29.90 in 10.0 mi SE 16.1 mph 26.5 mph N/A   Unknown
3:56 AM 84.9 °F 92.1 °F 73.9 °F 69% 29.90 in 8.0 mi SE 24.2 mph 33.4 mph N/A   Unknown
4:56 AM 84.0 °F 90.2 °F 73.0 °F 69% 29.88 in 10.0 mi SSE 6.9 mph - N/A   Unknown
5:56 AM 82.9 °F 88.0 °F 72.0 °F 69% 29.91 in 10.0 mi ENE 4.6 mph - N/A   Mostly Cloudy
6:56 AM 84.0 °F 90.2 °F 73.0 °F 69% 29.91 in 10.0 mi ENE 4.6 mph - N/A   Mostly Cloudy
7:56 AM 84.9 °F 91.4 °F 73.0 °F 67% 29.93 in 10.0 mi East 4.6 mph - N/A   Mostly Cloudy
8:56 AM 86.0 °F 93.0 °F 73.0 °F 65% 29.94 in 10.0 mi East 4.6 mph - N/A   Overcast
9:56 AM 89.1 °F 97.0 °F 73.0 °F 59% 29.94 in 10.0 mi Calm Calm - N/A   Mostly Cloudy
10:56 AM 91.0 °F 99.3 °F 73.0 °F 55% 29.93 in 10.0 mi Calm Calm - N/A   Mostly Cloudy
11:56 AM 93.0 °F 101.9 °F 73.0 °F 52% 29.92 in 10.0 mi East 6.9 mph - N/A   Mostly Cloudy
12:56 PM 96.1 °F 105.6 °F 73.0 °F 47% 29.90 in 10.0 mi SSE 5.8 mph - N/A   Mostly Cloudy
1:56 PM 95.0 °F 104.5 °F 73.0 °F 49% 29.88 in 10.0 mi SE 10.4 mph - N/A   Mostly Cloudy
2:56 PM 95.0 °F 102.5 °F 71.1 °F 46% 29.86 in 10.0 mi SE 8.1 mph - N/A   Mostly Cloudy
3:56 PM 96.1 °F 103.5 °F 71.1 °F 44% 29.83 in 10.0 mi SE 9.2 mph - N/A   Mostly Cloudy
4:56 PM 98.1 °F 105.0 °F 70.0 °F 40% 29.80 in 10.0 mi ESE 6.9 mph - N/A   Scattered Clouds
5:56 PM 98.1 °F 105.0 °F 70.0 °F 40% 29.79 in 10.0 mi East 4.6 mph - N/A   Partly Cloudy
6:56 PM 98.1 °F 104.4 °F 69.1 °F 39% 29.79 in 10.0 mi Calm Calm - N/A   Partly Cloudy
7:56 PM 93.9 °F 100.3 °F 70.0 °F 46% 29.80 in 10.0 mi SSE 6.9 mph - N/A   Partly Cloudy
8:56 PM 89.1 °F 95.0 °F 71.1 °F 55% 29.81 in 10.0 mi SE 9.2 mph - N/A   Partly Cloudy
9:56 PM 87.1 °F 92.8 °F 71.1 °F 59% 29.83 in 10.0 mi SE 9.2 mph - N/A   Partly Cloudy
10:56 PM 87.1 °F 91.3 °F 69.1 °F 55% 29.84 in 10.0 mi SE 8.1 mph - N/A   Partly Cloudy
11:56 PM 86.0 °F 90.1 °F 69.1 °F 57% 29.83 in 10.0 mi SE 6.9 mph - N/A   Unknown